SAA422 FAPE-FACT

Flight info

Callsign SAA422
Flight time N/A
Altitude 36000
Route DCT OKRAV UQ49 ESRUK UQ51 GETEN GETEN1B
Aircraft A20N/M-SDE2E3FGHIRWXY/LB1

Departure

Time 2026-04-28 16:17
Airport Chief Dawid Stuurman International Airport (FAPE)

Arrival

Time N/A
Airport Cape Town International Airport (FACT)
Time Latitude Longitude Altitude Speed Heading
2026-04-28 15:53 -33.98517 25.61091 208 ft 0 kts 343°
2026-04-28 16:04 -33.98522 25.61093 213 ft 1 kts 343°
2026-04-28 16:04 -33.98549 25.61101 208 ft 2 kts
2026-04-28 16:04 -33.98564 25.61099 213 ft 2 kts 28°
2026-04-28 16:05 -33.98577 25.61089 209 ft 2 kts 46°
2026-04-28 16:05 -33.98585 25.61077 209 ft 0 kts 57°
2026-04-28 16:09 -33.98581 25.61083 209 ft 3 kts 57°
2026-04-28 16:09 -33.98558 25.61128 214 ft 10 kts 58°
2026-04-28 16:10 -33.98444 25.61347 212 ft 18 kts 56°
2026-04-28 16:10 -33.98390 25.61493 200 ft 21 kts 68°
2026-04-28 16:10 -33.98234 25.61811 207 ft 8 kts 62°
2026-04-28 16:11 -33.98237 25.61880 204 ft 8 kts 124°
2026-04-28 16:11 -33.98274 25.61915 212 ft 0 kts 147°
2026-04-28 16:14 -33.98301 25.61936 204 ft 7 kts 147°
2026-04-28 16:15 -33.98371 25.61943 205 ft 0 kts 232°
2026-04-28 16:16 -33.98444 25.61809 206 ft 49 kts 238°
2026-04-28 16:16 -33.98777 25.61167 211 ft 127 kts 237°
2026-04-28 16:17 -33.99989 25.58851 1174 ft 180 kts 237°
2026-04-28 16:17 -34.00711 25.57542 1918 ft 195 kts 234°
2026-04-28 16:17 -34.01466 25.56107 2673 ft 210 kts 246°
2026-04-28 16:17 -34.01829 25.54359 3460 ft 224 kts 262°
2026-04-28 16:18 -34.01911 25.52461 4466 ft 226 kts 266°
2026-04-28 16:18 -34.01960 25.50545 5442 ft 230 kts 270°
2026-04-28 16:18 -34.01929 25.48583 6158 ft 242 kts 272°
2026-04-28 16:18 -34.01861 25.46465 6651 ft 264 kts 272°
2026-04-28 16:19 -34.01784 25.44199 7356 ft 274 kts 272°
2026-04-28 16:19 -34.01710 25.41886 8267 ft 278 kts 272°
2026-04-28 16:19 -34.01639 25.39548 9147 ft 281 kts 272°
2026-04-28 16:19 -34.01571 25.37174 10023 ft 285 kts 272°
2026-04-28 16:20 -34.01502 25.34770 10868 ft 289 kts 272°
2026-04-28 16:20 -34.01433 25.32335 11689 ft 293 kts 272°
2026-04-28 16:20 -34.01363 25.29874 12488 ft 296 kts 272°
2026-04-28 16:20 -34.01291 25.27375 13268 ft 300 kts 272°
2026-04-28 16:21 -34.01217 25.24848 14027 ft 303 kts 272°
2026-04-28 16:21 -34.01142 25.22291 14763 ft 307 kts 272°
2026-04-28 16:21 -34.01065 25.19668 15493 ft 311 kts 272°
2026-04-28 16:21 -34.00988 25.17090 16181 ft 314 kts 272°
2026-04-28 16:22 -34.00909 25.14450 16856 ft 317 kts 272°
2026-04-28 16:22 -34.00828 25.11775 17526 ft 321 kts 272°
2026-04-28 16:22 -34.00746 25.09074 18173 ft 324 kts 272°
2026-04-28 16:22 -34.00663 25.06347 18803 ft 327 kts 272°
2026-04-28 16:23 -34.00454 25.03606 19411 ft 330 kts 281°
2026-04-28 16:23 -34.00101 25.00857 19997 ft 334 kts 276°
2026-04-28 16:23 -33.99884 24.98062 20592 ft 337 kts 274°
2026-04-28 16:23 -33.99768 24.95231 21150 ft 340 kts 271°
2026-04-28 16:24 -33.99758 24.92372 21719 ft 343 kts 269°
2026-04-28 16:24 -33.99815 24.89486 22248 ft 346 kts 268°
2026-04-28 16:24 -33.99904 24.86574 22766 ft 350 kts 268°
2026-04-28 16:24 -34.00004 24.83632 23274 ft 353 kts 268°
2026-04-28 16:25 -34.00105 24.80670 23780 ft 355 kts 268°
2026-04-28 16:25 -34.00205 24.77681 24267 ft 358 kts 268°
2026-04-28 16:25 -34.00303 24.74670 24743 ft 361 kts 268°
2026-04-28 16:25 -34.00400 24.71638 25202 ft 364 kts 268°
2026-04-28 16:26 -34.00496 24.68577 25652 ft 366 kts 268°
2026-04-28 16:26 -34.00591 24.65501 26094 ft 369 kts 268°
2026-04-28 16:26 -34.00685 24.62405 26516 ft 371 kts 268°
2026-04-28 16:26 -34.00780 24.59283 26927 ft 374 kts 268°
2026-04-28 16:27 -34.00874 24.56143 27327 ft 376 kts 268°
2026-04-28 16:27 -34.00968 24.52985 27703 ft 379 kts 268°
2026-04-28 16:27 -34.01156 24.46599 28446 ft 383 kts 268°
2026-04-28 16:28 -34.01249 24.43380 28781 ft 386 kts 268°
2026-04-28 16:28 -34.01311 24.41233 28987 ft 388 kts 268°
2026-04-28 16:28 -34.01435 24.36866 29429 ft 391 kts 268°
2026-04-28 16:28 -34.01528 24.33587 29802 ft 392 kts 268°
2026-04-28 16:29 -34.01711 24.26986 30431 ft 396 kts 268°
2026-04-28 16:29 -34.01892 24.20364 31236 ft 394 kts 268°
2026-04-28 16:30 -34.01981 24.17062 31622 ft 394 kts 268°
2026-04-28 16:30 -34.02069 24.13735 31730 ft 401 kts 268°
2026-04-28 16:30 -34.02158 24.10342 31801 ft 409 kts 268°
2026-04-28 16:31 -34.02339 24.03363 31943 ft 424 kts 268°
2026-04-28 16:31 -34.02522 23.96140 32082 ft 439 kts 268°
2026-04-28 16:32 -34.02707 23.88674 32227 ft 452 kts 268°
2026-04-28 16:32 -34.02892 23.81012 32498 ft 461 kts 268°
2026-04-28 16:32 -34.02983 23.77150 32821 ft 460 kts 268°
2026-04-28 16:33 -34.03073 23.73301 33154 ft 459 kts 268°
2026-04-28 16:33 -34.03102 23.72058 33264 ft 459 kts 268°
2026-04-28 16:33 -34.03219 23.66914 33674 ft 458 kts 268°
2026-04-28 16:33 -34.03334 23.61783 34071 ft 457 kts 268°
2026-04-28 16:34 -34.03419 23.57957 34356 ft 457 kts 268°
2026-04-28 16:34 -34.03502 23.54134 34632 ft 456 kts 268°
2026-04-28 16:34 -34.03584 23.50319 34899 ft 455 kts 268°
2026-04-28 16:34 -34.03647 23.47327 35101 ft 455 kts 268°
2026-04-28 16:35 -34.03727 23.43511 35347 ft 455 kts 268°
2026-04-28 16:35 -34.03806 23.39707 35594 ft 454 kts 269°
2026-04-28 16:35 -34.03883 23.35909 35823 ft 454 kts 269°
2026-04-28 16:35 -34.03959 23.32105 36000 ft 454 kts 269°
2026-04-28 16:36 -34.04108 23.24472 36000 ft 459 kts 269°
2026-04-28 16:36 -34.04255 23.16707 35999 ft 466 kts 269°
2026-04-28 16:37 -34.04373 23.10230 35999 ft 465 kts 269°
2026-04-28 16:38 -34.04601 22.97263 35999 ft 464 kts 269°
2026-04-28 16:38 -34.04709 22.90788 36004 ft 464 kts 269°
2026-04-28 16:39 -34.04835 22.83013 35999 ft 463 kts 269°
2026-04-28 16:39 -34.04956 22.75248 36001 ft 463 kts 269°
2026-04-28 16:40 -34.05071 22.67485 35999 ft 463 kts 269°
2026-04-28 16:40 -34.05182 22.59712 36004 ft 463 kts 269°
2026-04-28 16:41 -34.05288 22.51948 35999 ft 463 kts 269°
2026-04-28 16:41 -34.05390 22.44178 36001 ft 464 kts 269°
2026-04-28 16:42 -34.05486 22.36405 36004 ft 464 kts 269°
2026-04-28 16:42 -34.05548 22.31196 35999 ft 463 kts 269°
2026-04-28 16:43 -34.05650 22.22124 35998 ft 463 kts 269°
2026-04-28 16:43 -34.05746 22.13083 36005 ft 464 kts 269°
2026-04-28 16:44 -34.05822 22.05305 36000 ft 464 kts 269°
2026-04-28 16:44 -34.05894 21.97527 35999 ft 464 kts 269°
2026-04-28 16:45 -34.05961 21.89731 36002 ft 466 kts 269°
2026-04-28 16:45 -34.06024 21.81927 35999 ft 464 kts 269°
2026-04-28 16:46 -34.06081 21.74151 35999 ft 464 kts 269°
2026-04-28 16:46 -34.06133 21.66368 35999 ft 464 kts 269°
2026-04-28 16:47 -34.06181 21.58576 35999 ft 465 kts 269°
2026-04-28 16:47 -34.06223 21.50780 35999 ft 465 kts 269°
2026-04-28 16:48 -34.06261 21.42991 36003 ft 466 kts 270°
2026-04-28 16:48 -34.06272 21.40396 35999 ft 466 kts 270°
2026-04-28 16:49 -34.06345 21.19345 36001 ft 464 kts 270°
2026-04-28 16:50 -34.06363 21.11549 35999 ft 465 kts 270°
2026-04-28 16:50 -34.06376 21.03745 36000 ft 465 kts 270°
2026-04-28 16:51 -34.06384 20.95955 36001 ft 464 kts 270°
2026-04-28 16:51 -34.06387 20.88166 36000 ft 465 kts 270°
2026-04-28 16:52 -34.06385 20.80373 36000 ft 465 kts 270°
2026-04-28 16:52 -34.06377 20.71982 35997 ft 466 kts 270°
2026-04-28 16:53 -34.06368 20.65449 36000 ft 465 kts 270°
2026-04-28 16:53 -34.06351 20.57663 35888 ft 461 kts 270°
2026-04-28 16:53 -34.06342 20.53804 35412 ft 460 kts 270°
2026-04-28 16:54 -34.06330 20.49946 34706 ft 460 kts 270°
2026-04-28 16:54 -34.06318 20.46084 33872 ft 462 kts 270°
2026-04-28 16:54 -34.06305 20.42203 33013 ft 464 kts 270°
2026-04-28 16:54 -34.06290 20.38307 32123 ft 465 kts 270°
2026-04-28 16:55 -34.06274 20.34400 31218 ft 467 kts 270°
2026-04-28 16:55 -34.06256 20.30476 30409 ft 466 kts 270°
2026-04-28 16:55 -34.06238 20.26589 29829 ft 460 kts 270°
2026-04-28 16:55 -34.06218 20.22753 29196 ft 456 kts 270°
2026-04-28 16:56 -34.06198 20.18949 28558 ft 451 kts 270°
2026-04-28 16:56 -34.06176 20.15185 27932 ft 447 kts 270°
2026-04-28 16:56 -34.06154 20.11448 27245 ft 444 kts 270°
2026-04-28 16:56 -34.06131 20.07743 26657 ft 439 kts 270°
2026-04-28 16:57 -34.06106 20.04082 26013 ft 435 kts 270°
2026-04-28 16:57 -34.06082 20.00487 25351 ft 433 kts 270°
2026-04-28 16:57 -34.06056 19.96879 24746 ft 428 kts 270°
2026-04-28 16:57 -34.06029 19.93300 24119 ft 425 kts 270°
2026-04-28 16:58 -34.06002 19.89761 23478 ft 422 kts 270°
2026-04-28 16:58 -34.05973 19.86224 22765 ft 421 kts 270°
2026-04-28 16:58 -34.05944 19.82710 22179 ft 416 kts 270°
2026-04-28 16:58 -34.05915 19.79252 21692 ft 409 kts 270°
2026-04-28 16:59 -34.05887 19.75839 21099 ft 405 kts 270°
2026-04-28 16:59 -34.05857 19.72455 20522 ft 401 kts 270°
2026-04-28 16:59 -34.05827 19.69106 19923 ft 398 kts 270°
2026-04-28 16:59 -34.05797 19.65791 19370 ft 393 kts 270°
2026-04-28 17:00 -34.05765 19.62506 18806 ft 389 kts 271°
2026-04-28 17:00 -34.05583 19.59269 18225 ft 386 kts 277°
2026-04-28 17:00 -34.05156 19.56090 17629 ft 382 kts 279°
2026-04-28 17:00 -34.04722 19.52948 17192 ft 375 kts 279°
2026-04-28 17:01 -34.04315 19.49904 17035 ft 361 kts 279°
2026-04-28 17:01 -34.03924 19.46973 16898 ft 347 kts 279°
2026-04-28 17:01 -34.03546 19.44158 16768 ft 334 kts 279°
2026-04-28 17:01 -34.03180 19.41450 16637 ft 322 kts 279°
2026-04-28 17:02 -34.02823 19.38815 16301 ft 317 kts 279°
2026-04-28 17:02 -34.02468 19.36212 16067 ft 313 kts 279°